Location: Antichan
(42.9728°N, 0.6667°E)
Time: 18:59:21
(UTC+00:00)

Cosmos 1864 Rocket - Pass Details

Date: 15 August 2020
Orbit: 952 x 996 km, 82.9° (Epoch: 20 September)

Event Time Altitude Azimuth Distance (km) Brightness Sun altitude
Exits shadow 22:17:13 72° 214° (SW) 1,022 4.4 -28.5°
Maximum altitude 22:17:52 82° 278° (W) 988 4.4 -28.6°
Drops below altitude 10° 22:24:11 10° 6° (N) 2,744 7.5 -29.1°
Sets 22:26:44 0° 8° (N) 3,702 8.3 -29.3°
